Location: Antioch
(38.0049°N, 121.8058°W)
Time: 22:52:23
(UTC+00:00)

Cosmos 2208 Rocket - Pass Details

Date: 24 May 2026
Orbit: 751 x 800 km, 74.0° (Epoch: 7 June)

Event Time Altitude Azimuth Distance (km) Brightness Sun altitude
Exits shadow 08:33:47 52° 339° (NNW) 957 4.6 -30.8°
Drops below altitude 10° 08:37:57 10° 12° (NNE) 2,305 7.4 -30.7°
Sets 08:40:21 0° 15° (NNE) 3,228 8.4 -30.6°
